Vertical_Velocity
0 -1 3 0 -1 -5 -6 -5 2 -2 -0 -1 -2 1 -4 -1 3 -2 2 -5 -1 -2 -0 0 1 -1 0 0 1 -0 1 -0 0 0 -0 -0 1 -1 -3 -0 0 -0 -1
-1 -0 4 -0 -0 -2 2 -3 -3 -6 1 -1 -1 0 -1 -3 -2 3 1 3 1 -1 -0 1 -0 -1 -0 1 2 -1 -1 -0 -0 0 -0 1 -0 -1 -1 0 -0 1 -1
4 -1 -2 -3 -0 -1 -2 5 -2 0 0 0 0 -2 -2 -1 -2 -0 0 0 -1 2 -0 -1 -1 0 0 1 1 -0 -1 -2 1 1 -0 0 -1 -1 -2 -1 -1 0 -0
1 3 -2 -0 -2 -1 -2 -3 -0 1 -4 -3 -2 -1 -1 5 -0 2 -3 1 1 -0 -1 -0 -1 0 1 -1 -0 0 3 0 0 -0 1 1 -0 -1 1 -1 -1 0 1
-1 0 0 -1 -1 -2 -1 0 -3 -3 -1 -1 -2 2 -1 1 -1 -1 -1 0 0 -3 -0 1 -0 -0 -4 -0 -2 0 -0 1 1 0 0 -1 0 -2 -0 -1 -1 -0 1
2 -1 -1 -0 -1 -1 1 -3 2 -1 1 -1 2 3 1 1 -1 -1 1 0 -1 -1 0 0 1 2 1 -0 -1 -0 -1 1 -1 1 4 0 -0 -0 0 0 -1 0 1
-1 -0 -1 1 -1 -1 1 -1 2 -3 2 -2 -2 -0 -2 -0 -1 -0 -2 -2 -1 -0 -0 0 -0 -1 -0 -1 -1 2 -2 -0 0 1 0 -1 -0 -2 1 -0 -0 0 0
-0 0 3 -1 1 -1 -2 -0 -2 1 -2 -0 -0 0 1 1 -1 -0 -0 -1 -1 1 0 -1 -1 -1 2 -0 -3 -1 2 -2 1 -2 1 0 1 1 -2 -1 2 -0 2
0 -2 -0 -0 -1 -2 -2 4 0 3 -0 0 -2 3 -0 -4 -0 -1 -1 -1 1 -1 1 0 -2 0 -2 1 0 -4 -1 -0 -1 4 2 -2 -0 0 0 -0 -2 2 0
1 -0 1 0 -1 -0 1 -4 -1 -0 -0 -2 -0 -1 2 2 -0 0 -0 -0 -4 -2 0 6 -2 -4 -3 1 4 -0 5 -1 -1 0 1 0 -1 -2 1 1 -2 -2 0
-1 0 0 -0 -2 1 -0 1 -1 3 -1 2 5 0 3 -1 1 1 0 -1 -2 0 8 -6 -1 0 2 -2 1 0 1 -0 -2 -0 0 -2 -0 2 0 2 2 -2 -1
-0 -1 -1 -1 -1 -1 3 -1 5 0 1 0 -0 -0 1 1 -0 2 1 -0 -0 -3 2 0 1 2 0 -0 0 -1 1 0 0 1 -0 1 -2 2 6 1 1 1 -0
-1 -1 -2 -0 -1 -0 -0 1 -0 -1 -1 0 -1 1 1 0 -0 -1 -1 0 -2 0 -1 2 -1 0 -0 -1 -0 1 0 0 0 -2 3 1 1 6 5 3 1 1 2
-0 -1 -1 -2 -1 -2 -1 2 -1 2 -1 -0 1 0 -1 -0 2 -0 -1 -1 -1 -1 -1 -1 -1 -0 0 1 -1 -2 0 -0 -0 1 0 2 -0 1 -1 3 1 2 1
-2 -2 -1 -1 -2 -1 1 -0 -2 0 1 -0 -0 0 -1 -1 4 4 1 0 -0 2 1 0 -0 -1 -1 -0 -1 -1 -1 1 -2 1 1 2 3 -0 2 4 4 5 2
-0 0 -1 -1 -1 -1 0 0 -3 -2 3 1 -1 -0 -2 -3 -0 -2 -2 0 -1 1 2 1 1 2 2 2 -1 -1 -0 -1 1 -3 0 -0 -1 0 3 5 2 8 0
-0 -1 -2 0 -3 -0 -1 -1 1 2 1 -0 -1 -0 -0 3 -2 -2 0 -0 0 1 -2 0 -1 -1 -1 -1 -1 2 1 -1 -1 2 -2 0 3 0 -0 -1 0 0 6
-1 0 1 -0 -1 -0 -2 -1 1 1 -1 0 0 -1 1 -2 -1 -1 1 -2 0 2 2 -1 1 3 1 1 1 -1 -2 1 -1 -1 0 -2 -2 2 1 1 1 0 2
-2 -1 -1 -0 -0 -1 -1 -1 -1 -2 2 -2 -3 -1 -1 -2 -1 -1 0 0 -0 -1 1 -1 1 -1 -4 -2 -0 1 1 -4 -5 -0 -1 1 -2 -1 1 -1 -0 1 2
0 -2 -1 -1 -0 0 -2 -1 -3 -3 -3 -1 -0 -1 -1 1 0 -0 -2 -1 -0 -0 2 1 -0 3 -0 -0 -1 0 1 2 -0 -4 -2 -1 0 -2 -1 1 0 -0 0
1 1 -1 -2 0 -1 -0 -1 1 1 2 1 -2 -2 -2 -2 -2 -2 -0 -2 -4 -2 -3 -3 -0 -1 -0 1 -1 0 -4 -1 1 2 -1 -1 -1 -2 -1 -2 -0 -1 1
-1 2 1 -1 -0 -1 -0 -0 1 -0 -1 -1 -1 -1 -1 -1 -1 -0 -1 -1 -1 -2 -0 -1 -0 -2 -1 -0 -1 -2 3 1 0 -1 0 -1 -1 -0 -1 -0 -2 -1 -1
-2 -0 0 -1 -2 -3 -1 2 1 -1 -1 -0 -1 -1 -1 -0 -2 -1 0 -1 0 0 -0 1 1 1 -0 -1 -0 -2 -3 -3 -4 -0 -0 -1 0 -1 -0 -1 1 -1 -0
-1 -1 -1 -1 -0 -2 -1 -1 -2 -1 -1 -1 -2 -1 -1 -1 -1 0 1 2 1 0 -0 -1 -1 1 -1 -1 -1 0 -3 -3 -2 -8 -0 -2 -2 -2 -1 2 -0 3 -0
-2 -2 -0 -1 -2 -1 -0 -1 0 -0 -1 -2 -3 -2 -2 -0 2 0 -1 -1 -2 -0 1 0 -2 -2 -2 -2 -2 -0 -1 -1 -2 -2 -6 -8 -1 -2 -2 -3 -1 -3 2
2 1 -1 -1 -2 1 -1 -2 -2 -3 -1 -2 -1 0 -1 1 2 2 -0 -0 0 -2 -2 -1 -1 -1 -3 -1 -0 -0 3 5 2 1 1 1 -10 -5 -2 -3 -2 1 -0
Height
5890 5891 5890 5891 5893 5895 5897 5898 5900 5900 5901 5902 5902 5903 5905 5904 5906 5906 5907 5906 5905 5905 5905 5904 5904 5903 5903 5903 5903 5903 5904 5903 5904 5904 5904 5903 5903 5902 5902 5902 5902 5903 5903
5892 5894 5894 5896 5897 5899 5900 5901 5904 5904 5904 5904 5904 5905 5906 5908 5907 5906 5906 5906 5907 5905 5903 5904 5905 5904 5903 5903 5903 5903 5904 5904 5906 5906 5906 5905 5905 5905 5905 5904 5904 5904 5905
5894 5896 5897 5898 5899 5901 5903 5905 5904 5905 5904 5906 5906 5907 5907 5908 5908 5907 5907 5907 5907 5904 5904 5905 5905 5904 5904 5905 5903 5904 5905 5906 5907 5907 5907 5907 5906 5906 5907 5906 5906 5907 5907
5897 5897 5900 5900 5901 5903 5905 5906 5906 5905 5906 5907 5907 5908 5908 5907 5908 5908 5908 5908 5906 5905 5905 5905 5905 5904 5904 5905 5905 5905 5906 5905 5906 5907 5907 5908 5908 5907 5907 5908 5907 5907 5908
5898 5900 5900 5901 5903 5906 5905 5906 5907 5906 5907 5908 5907 5907 5908 5907 5908 5908 5908 5908 5906 5906 5905 5905 5904 5904 5904 5905 5905 5906 5906 5906 5906 5907 5908 5907 5908 5908 5908 5908 5908 5908 5908
5900 5901 5903 5903 5905 5906 5906 5906 5907 5907 5907 5907 5907 5907 5907 5908 5908 5908 5908 5907 5906 5906 5906 5905 5905 5905 5904 5906 5906 5907 5907 5907 5907 5907 5907 5907 5908 5908 5908 5908 5908 5908 5909
5902 5903 5904 5905 5905 5906 5907 5906 5907 5907 5907 5908 5908 5908 5908 5908 5908 5907 5907 5907 5907 5907 5905 5905 5904 5905 5905 5905 5906 5907 5907 5907 5907 5907 5907 5909 5909 5908 5909 5909 5908 5908 5908
5904 5905 5906 5906 5907 5907 5907 5907 5908 5907 5908 5907 5907 5907 5908 5907 5907 5907 5907 5907 5907 5907 5906 5905 5905 5905 5905 5906 5906 5906 5907 5908 5908 5908 5907 5908 5909 5909 5909 5909 5908 5908 5908
5906 5906 5907 5907 5907 5907 5907 5908 5909 5908 5908 5908 5908 5908 5909 5908 5907 5907 5907 5908 5908 5907 5906 5906 5905 5905 5906 5906 5905 5905 5906 5906 5907 5907 5908 5908 5908 5908 5908 5909 5908 5907 5908
5907 5907 5907 5908 5908 5909 5908 5909 5909 5909 5909 5909 5909 5909 5909 5909 5909 5908 5908 5908 5908 5907 5907 5905 5905 5905 5906 5906 5905 5904 5905 5905 5906 5906 5907 5906 5907 5907 5908 5908 5908 5908 5907
5909 5909 5909 5910 5910 5910 5910 5911 5911 5910 5911 5910 5910 5910 5911 5910 5910 5909 5909 5908 5907 5906 5906 5905 5904 5904 5904 5905 5904 5903 5903 5904 5904 5904 5905 5905 5905 5905 5905 5907 5907 5907 5907
5909 5910 5910 5911 5911 5912 5912 5912 5913 5912 5912 5912 5911 5912 5912 5912 5911 5911 5910 5909 5908 5907 5906 5905 5904 5904 5903 5903 5903 5902 5902 5902 5901 5901 5901 5902 5902 5903 5904 5905 5906 5906 5906
5909 5911 5912 5912 5912 5914 5914 5914 5914 5914 5913 5913 5913 5913 5913 5912 5911 5911 5910 5909 5908 5907 5907 5906 5904 5904 5903 5902 5902 5900 5899 5899 5900 5899 5899 5899 5900 5900 5901 5902 5903 5905 5905
5911 5912 5913 5914 5915 5915 5915 5916 5915 5915 5914 5914 5914 5914 5914 5913 5912 5911 5910 5909 5908 5908 5907 5906 5905 5903 5902 5902 5901 5900 5899 5898 5897 5898 5897 5896 5896 5898 5897 5898 5900 5902 5903
5913 5914 5915 5916 5917 5917 5917 5917 5916 5916 5915 5915 5915 5915 5914 5914 5913 5912 5911 5910 5909 5909 5908 5907 5905 5903 5901 5900 5899 5899 5898 5897 5896 5896 5896 5895 5894 5894 5894 5895 5895 5896 5900
5914 5915 5916 5917 5917 5917 5917 5917 5917 5916 5917 5916 5916 5915 5914 5914 5914 5913 5912 5911 5910 5909 5909 5907 5906 5904 5903 5901 5899 5898 5897 5896 5895 5894 5893 5893 5893 5892 5892 5892 5893 5892 5895
5914 5915 5916 5917 5918 5918 5918 5918 5918 5918 5917 5917 5916 5916 5915 5914 5914 5913 5912 5912 5911 5911 5909 5907 5906 5905 5904 5903 5901 5899 5896 5895 5894 5893 5891 5890 5890 5890 5891 5890 5890 5890 5890
5915 5916 5917 5918 5918 5919 5919 5918 5919 5919 5918 5917 5917 5916 5916 5915 5914 5913 5913 5913 5911 5910 5908 5908 5906 5905 5903 5901 5900 5898 5896 5894 5892 5891 5890 5888 5887 5887 5887 5888 5888 5888 5888
5915 5916 5917 5917 5918 5918 5918 5918 5918 5919 5918 5918 5917 5916 5916 5915 5914 5913 5912 5911 5910 5909 5907 5906 5905 5904 5903 5900 5898 5896 5894 5892 5891 5889 5888 5886 5884 5884 5883 5883 5883 5884 5885
5915 5915 5915 5916 5917 5917 5918 5918 5918 5917 5917 5918 5917 5916 5915 5914 5914 5913 5911 5911 5909 5908 5906 5904 5903 5901 5899 5897 5896 5895 5893 5890 5888 5887 5886 5884 5882 5880 5880 5879 5879 5879 5880
5914 5915 5915 5915 5917 5917 5917 5918 5918 5917 5918 5918 5918 5917 5916 5914 5913 5911 5910 5909 5907 5905 5903 5902 5901 5899 5897 5894 5893 5892 5891 5889 5887 5884 5882 5881 5879 5877 5876 5875 5875 5875 5874
5913 5914 5915 5914 5915 5915 5916 5916 5917 5917 5917 5916 5916 5915 5914 5912 5911 5910 5908 5905 5903 5901 5900 5899 5898 5897 5894 5892 5890 5887 5886 5886 5884 5882 5880 5878 5876 5874 5872 5871 5870 5870 5870
5912 5913 5914 5914 5914 5914 5914 5915 5915 5914 5914 5913 5912 5912 5912 5910 5909 5907 5904 5902 5900 5899 5897 5895 5893 5891 5891 5890 5887 5885 5881 5879 5878 5878 5876 5874 5873 5871 5868 5867 5865 5864 5864
5910 5911 5912 5912 5913 5913 5912 5912 5912 5912 5911 5910 5909 5908 5908 5907 5905 5903 5900 5898 5896 5895 5894 5892 5890 5888 5886 5884 5883 5881 5879 5876 5872 5870 5870 5869 5867 5865 5864 5862 5860 5858 5857
5907 5907 5908 5908 5908 5909 5909 5909 5908 5907 5906 5905 5904 5903 5902 5901 5899 5897 5894 5892 5891 5890 5889 5888 5886 5884 5881 5879 5877 5876 5875 5872 5869 5866 5862 5860 5859 5858 5857 5855 5852 5852 5849
5903 5904 5904 5904 5904 5904 5904 5903 5903 5901 5900 5900 5899 5898 5896 5895 5894 5893 5890 5888 5886 5885 5884 5882 5880 5879 5876 5874 5871 5869 5867 5865 5864 5861 5858 5853 5851 5849 5847 5846 5845 5843 5841